TimeCST,TemperatureF,Dew PointF,Humidity,Sea Level PressureIn,VisibilityMPH,Wind Direction,Wind SpeedMPH,Gust SpeedMPH,PrecipitationIn,Events,Conditions,WindDirDegrees,DateUTC
12:15 AM,30.2,28.4,93,30.29,5.0,Calm,Calm,-,N/A,,Clear,0,2013-02-09 06:15:00
12:35 AM,30.2,28.4,93,30.29,4.0,Calm,Calm,-,N/A,,Clear,0,2013-02-09 06:35:00
12:55 AM,28.4,28.4,100,30.28,3.0,ENE,3.5,-,N/A,,Clear,60,2013-02-09 06:55:00
1:15 AM,30.2,28.4,93,30.28,5.0,ENE,3.5,-,N/A,,Clear,60,2013-02-09 07:15:00
1:35 AM,30.2,28.4,93,30.28,4.0,Calm,Calm,-,N/A,,Clear,0,2013-02-09 07:35:00
1:55 AM,30.2,28.4,93,30.28,5.0,ENE,4.6,-,N/A,,Clear,60,2013-02-09 07:55:00
2:15 AM,28.4,28.4,100,30.29,4.0,Calm,Calm,-,N/A,,Clear,0,2013-02-09 08:15:00
2:35 AM,28.4,28.4,100,30.30,4.0,Calm,Calm,-,N/A,,Clear,0,2013-02-09 08:35:00
2:55 AM,28.4,26.6,93,30.30,3.0,Calm,Calm,-,N/A,,Clear,0,2013-02-09 08:55:00
3:15 AM,26.6,26.6,100,30.29,3.0,Calm,Calm,-,N/A,,Clear,0,2013-02-09 09:15:00
3:35 AM,28.4,26.6,93,30.29,4.0,Calm,Calm,-,N/A,,Clear,0,2013-02-09 09:35:00
3:55 AM,26.6,24.8,93,30.29,4.0,ENE,4.6,-,N/A,,Clear,70,2013-02-09 09:55:00
4:15 AM,26.6,26.6,100,30.30,4.0,Calm,Calm,-,N/A,,Clear,0,2013-02-09 10:15:00
4:35 AM,26.6,24.8,93,30.31,4.0,Calm,Calm,-,N/A,,Clear,0,2013-02-09 10:35:00
4:55 AM,26.6,24.8,93,30.32,4.0,Calm,Calm,-,N/A,,Clear,0,2013-02-09 10:55:00
5:15 AM,26.6,24.8,93,30.31,3.0,Calm,Calm,-,N/A,,Clear,0,2013-02-09 11:15:00
5:35 AM,26.6,26.6,100,30.31,3.0,Calm,Calm,-,N/A,,Clear,0,2013-02-09 11:35:00
5:55 AM,26.6,26.6,100,30.31,4.0,East,4.6,-,N/A,,Clear,80,2013-02-09 11:55:00
6:15 AM,28.4,26.6,93,30.30,4.0,ENE,5.8,-,N/A,,Clear,70,2013-02-09 12:15:00
6:35 AM,28.4,26.6,93,30.31,5.0,ENE,3.5,-,N/A,,Clear,60,2013-02-09 12:35:00
6:55 AM,28.4,26.6,93,30.31,4.0,East,4.6,-,N/A,,Clear,80,2013-02-09 12:55:00
7:15 AM,28.4,28.4,100,30.30,5.0,East,8.1,-,N/A,,Clear,90,2013-02-09 13:15:00
7:55 AM,32.0,28.4,87,30.31,5.0,ENE,6.9,-,N/A,,Clear,70,2013-02-09 13:55:00
8:15 AM,32.0,30.2,93,30.32,6.0,ENE,8.1,-,N/A,,Clear,70,2013-02-09 14:15:00
8:35 AM,33.8,32.0,93,30.31,6.0,East,8.1,-,N/A,,Clear,90,2013-02-09 14:35:00
8:55 AM,35.6,30.2,81,30.32,7.0,East,5.8,-,N/A,,Clear,100,2013-02-09 14:55:00
9:15 AM,35.6,30.2,81,30.32,7.0,East,5.8,-,N/A,,Clear,90,2013-02-09 15:15:00
9:35 AM,37.4,32.0,81,30.31,7.0,ESE,5.8,-,N/A,,Clear,120,2013-02-09 15:35:00
9:55 AM,39.2,32.0,75,30.31,7.0,East,6.9,-,N/A,,Clear,90,2013-02-09 15:55:00
10:15 AM,41.0,32.0,70,30.32,7.0,East,8.1,-,N/A,,Clear,80,2013-02-09 16:15:00
10:35 AM,41.0,32.0,70,30.31,8.0,ESE,3.5,-,N/A,,Clear,110,2013-02-09 16:35:00
10:55 AM,42.8,32.0,66,30.30,8.0,East,3.5,-,N/A,,Clear,100,2013-02-09 16:55:00
11:15 AM,44.6,32.0,61,30.29,9.0,East,5.8,-,N/A,,Clear,100,2013-02-09 17:15:00
11:35 AM,46.4,32.0,57,30.27,9.0,ESE,4.6,-,N/A,,Clear,120,2013-02-09 17:35:00
11:55 AM,48.2,32.0,54,30.27,8.0,Calm,Calm,-,N/A,,Clear,0,2013-02-09 17:55:00
12:15 PM,50.0,32.0,50,30.25,7.0,East,3.5,-,N/A,,Clear,90,2013-02-09 18:15:00
12:35 PM,50.0,32.0,50,30.24,8.0,Calm,Calm,-,N/A,,Clear,0,2013-02-09 18:35:00
12:55 PM,51.8,32.0,47,30.22,8.0,ESE,3.5,-,N/A,,Clear,120,2013-02-09 18:55:00
1:15 PM,53.6,30.2,41,30.21,9.0,ESE,3.5,-,N/A,,Clear,120,2013-02-09 19:15:00
1:35 PM,51.8,30.2,44,30.20,9.0,ESE,4.6,-,N/A,,Clear,110,2013-02-09 19:35:00
1:55 PM,53.6,32.0,44,30.19,9.0,ESE,4.6,-,N/A,,Clear,110,2013-02-09 19:55:00
2:15 PM,53.6,32.0,44,30.18,9.0,SSE,4.6,-,N/A,,Clear,150,2013-02-09 20:15:00
2:35 PM,53.6,32.0,44,30.18,8.0,ESE,4.6,-,N/A,,Clear,120,2013-02-09 20:35:00
2:55 PM,53.6,30.2,41,30.17,9.0,ESE,5.8,-,N/A,,Clear,110,2013-02-09 20:55:00
3:15 PM,53.6,30.2,41,30.17,9.0,Calm,Calm,-,N/A,,Clear,0,2013-02-09 21:15:00
3:35 PM,53.6,30.2,41,30.17,9.0,Calm,Calm,-,N/A,,Clear,0,2013-02-09 21:35:00
4:35 PM,53.6,30.2,41,30.15,9.0,SE,3.5,-,N/A,,Clear,130,2013-02-09 22:35:00
4:55 PM,51.8,30.2,44,30.14,9.0,SE,3.5,-,N/A,,Clear,130,2013-02-09 22:55:00
5:15 PM,50.0,32.0,50,30.13,8.0,SE,3.5,-,N/A,,Clear,130,2013-02-09 23:15:00
5:35 PM,50.0,32.0,50,30.12,9.0,ESE,3.5,-,N/A,,Clear,110,2013-02-09 23:35:00
5:55 PM,50.0,32.0,50,30.13,10.0,SE,3.5,-,N/A,,Clear,130,2013-02-09 23:55:00
8:35 PM,50.0,32.0,50,30.12,10.0,SE,3.5,-,N/A,,Partly Cloudy,140,2013-02-10 02:35:00
8:55 PM,50.0,32.0,50,30.12,10.0,SSE,3.5,-,N/A,,Scattered Clouds,160,2013-02-10 02:55:00
9:15 PM,50.0,32.0,50,30.13,10.0,South,3.5,-,N/A,,Mostly Cloudy,170,2013-02-10 03:15:00
9:35 PM,50.0,32.0,50,30.11,10.0,South,4.6,-,N/A,,Scattered Clouds,170,2013-02-10 03:35:00
9:55 PM,50.0,32.0,50,30.12,10.0,South,4.6,-,N/A,,Scattered Clouds,180,2013-02-10 03:55:00
10:15 PM,50.0,32.0,50,30.12,10.0,SSE,4.6,-,N/A,,Mostly Cloudy,160,2013-02-10 04:15:00
10:35 PM,50.0,32.0,50,30.12,10.0,SSE,3.5,-,N/A,,Mostly Cloudy,160,2013-02-10 04:35:00
10:55 PM,50.0,32.0,50,30.09,10.0,SE,4.6,-,N/A,,Partly Cloudy,140,2013-02-10 04:55:00
11:15 PM,50.0,32.0,50,30.09,10.0,SE,3.5,-,N/A,,Partly Cloudy,140,2013-02-10 05:15:00
11:55 PM,50.0,32.0,50,30.08,10.0,SSE,4.6,-,N/A,,Mostly Cloudy,150,2013-02-10 05:55:00